CZ-4C R/B

Satellite information

Favourite Embed

Satellite Type and Status

ROCKET BODYIN ORBIT

Key statistics

Satellite CZ-4C R/B at a glance.

Uptime

1098

Days in orbit

Revolutions

≈ 14.5

Per day

Orbit

LEO

Low Earth Orbit

Inclination

60.0

Latest

Satellite identification and parameters

Extended collection of information and parameters for CZ-4C R/B.

Object identification

Identified? True

Debris? False

Object name: CZ-4C R/B

International designator: 2022-169C

Object number (NORAD): 54701

Object ID (CCSDS): 54701

Country: PEOPLES REPUBLIC OF CHINA (PRC)

Current information (Y/N): Y

RCS size: LARGE

Orbital parameters

Period: 99.206 minutes

Inclination: 59.9576 deg

SMA: 7098.805 km

Apoapsis: 774.865 km

Periapsis: 666.474 km

RAAN: 5.1751 deg

Eccentricy: 0.00763441

Argument of periapsis: 262.0594 deg

Mean anomaly: 97.1782 deg

Mean motion: 14.51526385 rev/day

Mean motion (dot): 0.00000685 rev/day2

B* drag term: 0.00020226319 1/REarth

Two-line elements (TLE)

Creation date: Dec. 12, 2025, 10:14 a.m.

Reference frame: TEME

Reference center: EARTH

Epoch: Dec. 12, 2025, 6:39 a.m. UTC

TLE line 0: 0 CZ-4C R/B

TLE line 1: 1 54701U 22169C 25346.27751725 .00000685 00000-0 20226-3 0 9997

TLE line 2: 2 54701 59.9576 5.1751 0076344 262.0594 97.1782 14.51526385158986

Live tracking on map

Real-time ground track for satellite CZ-4C R/B.

In-orbit conjunctions

A list of the most updated potential collisions computed for object CZ-4C R/B.

Target Orbit TCA Probability of collision Miss distance Type
IRIDIUM 33 DEB LEO 2024-11-21 19:09:02 0.0006002316 349.0 (m) DEBRIS

Associated space launch

Chinese classified satellites of unknown purposes.

CZ-4C R/B was lifted into orbit during the mission ‘Long March 4C | Shiyan 20A & 20B’, on board a Long March 4C space rocket.

The launch took place on Dec. 12, 2022, 8:22 a.m. from Launch Area 94 (SLS-2 / 603).

For more information about the launch, click the button.

Launch to space Long March 4C | Shiyan 20A & 20B
Long March 4C | Shiyan 20A & 20B

Agency: N/A

Status: Launch Successful

Launch date: Dec. 12, 2022, 8:22 a.m. UTC

Rocket: Long March 4C

Launch pad: Launch Area 94 (SLS-2 / 603)

Location: Jiuquan Satellite Launch Center, People's Republic of China

...

Latest news about this satellite

There are no fresh news available about this satellite. Check back as we update our databases every day.


Newsletter sign-up

Weekly statistics, charts and insights to help you stay on top of the space industry.